Погода в Лобойковке

Украина / Днепропетровская область     48°40′31″N   34°41′13″E
темп.,
°C
ветер,
м/с
пор.,
м/с
влажн.,
%
обл.,
%
осадки,
мм/ч
давл.,
гПа
погр.,
м
20 января, ср
ср2023:00−17зсз229567 0.0 102322
02:00−17з229536 0.0 102422
05:00−18з11950 0.0 102421
08:00−18юз11930 0.0 102521
11:00−13ююз11840 0.0 1027239
14:00−12ю128020 0.0 1025399
17:00−14юв228835 0.0 102720
20:00−15юв339218 0.0 102839
21 января, чт
чт2123:00−15ююв34940 0.0 102858
02:00−16юв34910 0.0 102852
05:00−15юв34900 0.0 102871
08:00−14юв46890 0.0 1028119
11:00−7ю589118 0.0 1027336
14:00−3ю5109247 0.1 1025458
17:00−2ю51194100 0.0 1025331
20:00−1ююз4109592 0.0 1024369
22 января, пт
пт2223:00−3ю4109586 0.0 1023210
02:00−3ю489662 0.0 1023198
05:00+1ююз599898 0.0 1021361
08:00+2ююз5119899 0.0 1022382
11:00+3ююз513100100 0.0 1021403
14:00+3ю51310087 0.0 1020379
17:00+3ю5129789 0.0 1019365
20:00+2ю5139483 0.0 1019333
23 января, сб
сб2323:00+3ю5129566 0.0 1018352
02:00+3ю6139683 0.0 1017413
05:00+3ю5139599 0.0 1016403
08:00+3ю6129499 0.0 1017369
11:00+4ю61394100 0.0 1016418
14:00+5ю51294100 0.0 1015424
17:00+5ю51294100 0.0 1014351
20:00+5ю51495100 0.0 1015382
24 января, вс
вс2423:00+5ю61591100 0.0 1014468
02:00+5ю61589100 0.0 1014467
05:00+5ю61585100 0.0 1013414
08:00+5ююв71679100 0.0 1013394
11:00+7ююв81674100 0.0 1012534
14:00+7ююв81684100 0.5 1011740
17:00+6ююв71584100 1.6 1011542
20:00+6ююв81782100 1.9 1010558